Location: Dodge City Community College Allied Health Building
(37.7772°N, 100.0364°W)
Time: 14:05:53
(UTC+00:00)

Nadezhda 4 Rocket - Pass Details

Date: 08 December 2021
Orbit: 950 x 992 km, 82.9° (Epoch: 19 January)

Event Time Altitude Azimuth Distance (km) Brightness Sun altitude
Rises 12:27:37 0° 198° (SSW) 3,623 7.0 -14.6°
Reaches altitude 10° 12:30:10 10° 203° (SSW) 2,686 6.3 -14.1°
Maximum altitude 12:36:09 54° 280° (W) 1,166 4.1 -13.0°
Drops below altitude 10° 12:42:16 10° 357° (N) 2,730 6.1 -11.8°
Sets 12:44:52 0° 2° (N) 3,688 6.8 -11.3°
